GW6598 Weather Reports


time (UTC)temp
C
wind
direction
speed
KPH
gust
KPH
rain 1hr
cm
rain 24hr
cm
rain mn
cm
humidity
%
barometer
mb
20260506124525 9 67 0.0 3.2 0.00 0.00 0.00 89 1018.6
20260506123030 9 67 0.0 3.2 0.00 0.00 0.00 89 1018.5
20260506121527 10 67 0.0 3.2 0.00 0.00 0.00 89 1018.6
20260506120005 9 67 1.6 3.2 0.00 0.00 0.00 90 1018.6
20260506114508 9 67 0.0 3.2 0.00 0.00 0.00 89 1018.7
20260506113018 9 67 0.0 3.2 0.00 0.00 0.00 89 1018.8
20260506111508 10 67 0.0 1.6 0.00 0.00 0.00 89 1018.8
20260506110013 10 67 0.0 3.2 0.00 0.00 0.00 89 1018.7
20260506104511 10 67 0.0 0.0 0.00 0.00 0.00 89 1018.8
20260506103014 10 67 0.0 0.0 0.00 0.00 0.00 89 1018.7
20260506101516 10 67 0.0 1.6 0.00 0.00 0.00 88 1018.7
20260506100014 10 67 0.0 3.2 0.00 0.00 0.00 88 1018.5
20260506094519 11 67 0.0 3.2 0.00 0.00 0.00 88 1018.5
20260506093020 11 67 0.0 0.0 0.00 0.00 0.00 88 1018.6
20260506091518 11 67 0.0 3.2 0.00 0.00 0.00 88 1018.6
20260506090031 11 72 0.0 3.2 0.00 0.00 0.00 88 1018.8
20260506084523 11 44 0.0 3.2 0.00 0.00 0.00 88 1018.9
20260506083020 11 44 0.0 3.2 0.00 0.00 0.00 88 1018.9
20260506081522 12 44 0.0 3.2 0.00 0.00 0.00 87 1019.1
20260506073025 12 350 0.0 3.2 0.00 0.00 0.00 86 1018.9
20260506071526 12 51 0.0 3.2 0.00 0.00 0.00 85 1018.8
20260506061543 12 5 0.0 3.2 0.00 0.00 0.00 83 1018.4
20260506044530 13 333 1.6 6.4 0.00 0.00 0.00 80 1017.8
20260506043035 13 313 1.6 4.8 0.00 0.00 0.00 79 1017.7
20260506041525 13 360 1.6 3.2 0.00 0.00 0.00 78 1017.6
20260506040019 13 351 1.6 6.4 0.00 0.00 0.00 77 1017.3
20260506034527 13 325 3.2 6.4 0.00 0.00 0.00 76 1017.2
20260506033025 14 9 1.6 9.7 0.00 0.00 0.00 75 1016.9
20260506031524 14 306 3.2 12.9 0.00 0.00 0.00 74 1016.5
20260506030029 14 352 6.4 12.9 0.00 0.00 0.00 73 1016.1
20260506024538 15 35 11.3 14.5 0.00 0.00 0.00 72 1015.9
20260506023026 15 16 4.8 14.5 0.00 0.00 0.00 69 1015.8
20260506021526 16 346 4.8 12.9 0.00 0.00 0.00 66 1015.7
20260506020006 16 324 6.4 16.1 0.00 0.00 0.00 64 1015.5
20260506014508 16 325 4.8 14.5 0.00 0.00 0.00 70 1015.5
20260506013012 16 276 6.4 16.1 0.00 0.00 0.00 69 1015.4
20260506011510 16 310 8.0 20.9 0.00 0.00 0.00 69 1015.4
20260506010012 16 265 9.7 20.9 0.00 0.00 0.00 71 1015.4
20260506004514 16 292 12.9 22.5 0.00 0.00 0.00 73 1015.4
20260506003016 16 252 8.0 22.5 0.00 0.00 0.00 72 1015.3
20260506001515 16 277 11.3 24.1 0.00 0.00 0.00 72 1015.2
20260506000019 16 227 11.3 22.5 0.00 0.00 0.00 73 1015.1
20260505234520 16 281 11.3 24.1 0.00 0.00 0.00 72 1015.2
20260505233022 17 306 11.3 25.7 0.00 0.00 0.00 71 1015.2
20260505231523 16 252 14.5 29.0 0.00 0.00 0.00 72 1015.1
20260505230020 16 287 16.1 24.1 0.00 0.00 0.00 71 1015.3
20260505224527 16 277 14.5 27.4 0.00 0.00 0.00 70 1015.3
20260505223027 16 302 9.7 25.7 0.00 0.00 0.00 71 1015.5
20260505221524 17 269 11.3 24.1 0.00 0.00 0.00 70 1015.7
20260505220025 16 280 12.9 24.1 0.00 0.00 0.00 72 1015.9
20260505214532 16 298 9.7 22.5 0.00 0.00 0.00 71 1016.1
20260505213024 16 286 8.0 25.7 0.00 0.00 0.00 72 1016.4
20260505211525 16 271 11.3 25.7 0.00 0.00 0.00 70 1016.4
20260505210028 16 271 14.5 25.7 0.00 0.00 0.00 70 1016.4
20260505204526 16 276 12.9 25.7 0.00 0.00 0.00 68 1016.5
20260505203008 16 273 11.3 24.1 0.00 0.00 0.00 67 1016.4
20260505201513 16 284 12.9 27.4 0.00 0.00 0.00 69 1016.5
20260505200013 16 259 12.9 27.4 0.00 0.00 0.00 67 1016.5
20260505194516 16 256 16.1 29.0 0.00 0.00 0.00 64 1016.4
20260505193012 17 259 11.3 27.4 0.00 0.00 0.00 68 1016.5
20260505191519 17 323 8.0 17.7 0.00 0.00 0.00 68 1016.5
20260505190024 17 242 6.4 20.9 0.00 0.00 0.00 69 1016.7
20260505184520 16 255 9.7 17.7 0.00 0.00 0.00 69 1016.6
20260505183027 17 212 4.8 19.3 0.00 0.00 0.00 71 1016.6
20260505181520 17 175 4.8 17.7 0.00 0.00 0.00 69 1016.5
20260505180023 16 312 8.0 16.1 0.00 0.00 0.00 69 1016.5
20260505174524 16 257 6.4 16.1 0.00 0.00 0.00 70 1016.5
20260505173024 16 293 3.2 12.9 0.00 0.00 0.00 71 1016.3
20260505171524 16 254 6.4 14.5 0.00 0.00 0.00 71 1016.2
20260505170028 16 320 4.8 12.9 0.00 0.00 0.00 70 1016.3
20260505164526 15 265 4.8 11.3 0.00 0.00 0.00 71 1016.3
20260505163026 15 232 4.8 11.3 0.00 0.00 0.00 68 1016.3
20260505161526 16 226 3.2 9.7 0.00 0.00 0.00 68 1016.1
20260505153010 14 331 3.2 11.3 0.00 0.00 0.00 75 1015.9
20260505151511 14 5 3.2 8.0 0.00 0.00 0.00 78 1015.8